TimeMDT,TemperatureF,Dew PointF,Humidity,Sea Level PressureIn,VisibilityMPH,Wind Direction,Wind SpeedMPH,Gust SpeedMPH,PrecipitationIn,Events,Conditions,WindDirDegrees,DateUTC
12:15 AM,57.2,37.4,48,29.65,10.0,West,15.0,19.6,N/A,,Overcast,270,2012-10-08 06:15:00
12:35 AM,57.2,37.4,48,29.66,10.0,West,13.8,-,N/A,,Overcast,280,2012-10-08 06:35:00
12:55 AM,55.4,37.4,51,29.66,10.0,WNW,16.1,21.9,N/A,,Mostly Cloudy,290,2012-10-08 06:55:00
1:15 AM,53.6,37.4,54,29.67,10.0,WNW,13.8,-,N/A,,Mostly Cloudy,290,2012-10-08 07:15:00
1:35 AM,53.6,37.4,54,29.67,10.0,WNW,17.3,-,N/A,,Mostly Cloudy,300,2012-10-08 07:35:00
1:55 AM,51.8,37.4,58,29.68,10.0,WNW,15.0,-,N/A,,Mostly Cloudy,290,2012-10-08 07:55:00
2:15 AM,51.8,37.4,58,29.69,10.0,WNW,16.1,-,N/A,,Overcast,290,2012-10-08 08:15:00
2:35 AM,51.8,39.2,62,29.69,10.0,WNW,15.0,20.7,N/A,,Overcast,290,2012-10-08 08:35:00
2:55 AM,51.8,39.2,62,29.69,10.0,WNW,17.3,21.9,N/A,,Mostly Cloudy,290,2012-10-08 08:55:00
3:15 AM,51.8,39.2,62,29.69,10.0,WNW,13.8,-,N/A,,Scattered Clouds,300,2012-10-08 09:15:00
3:35 AM,51.8,39.2,62,29.70,10.0,WNW,15.0,19.6,N/A,,Clear,300,2012-10-08 09:35:00
3:55 AM,51.8,39.2,62,29.71,10.0,WNW,16.1,20.7,N/A,,Mostly Cloudy,300,2012-10-08 09:55:00
4:15 AM,50.0,39.2,66,29.72,10.0,WNW,13.8,-,N/A,,Overcast,300,2012-10-08 10:15:00
4:35 AM,50.0,39.2,66,29.72,10.0,WNW,16.1,20.7,N/A,,Scattered Clouds,300,2012-10-08 10:35:00
4:55 AM,50.0,39.2,66,29.73,10.0,WNW,12.7,-,N/A,,Clear,290,2012-10-08 10:55:00
5:15 AM,48.2,39.2,71,29.73,10.0,WNW,13.8,-,N/A,,Scattered Clouds,300,2012-10-08 11:15:00
5:35 AM,48.2,39.2,71,29.74,10.0,WNW,17.3,-,N/A,,Mostly Cloudy,300,2012-10-08 11:35:00
5:55 AM,48.2,41.0,76,29.75,10.0,NW,13.8,20.7,N/A,,Overcast,310,2012-10-08 11:55:00
6:15 AM,46.4,42.8,87,29.76,10.0,NW,13.8,-,N/A,,Overcast,310,2012-10-08 12:15:00
6:35 AM,46.4,42.8,87,29.76,10.0,NW,12.7,-,N/A,,Overcast,310,2012-10-08 12:35:00
6:55 AM,46.4,41.0,81,29.77,10.0,NW,10.4,-,N/A,,Overcast,310,2012-10-08 12:55:00
7:15 AM,46.4,39.2,76,29.77,10.0,NW,10.4,-,N/A,,Mostly Cloudy,310,2012-10-08 13:15:00
7:35 AM,46.4,39.2,76,29.78,10.0,WNW,6.9,-,N/A,,Mostly Cloudy,290,2012-10-08 13:35:00
7:55 AM,46.4,41.0,81,29.78,10.0,WNW,9.2,-,N/A,,Overcast,300,2012-10-08 13:55:00
8:15 AM,46.4,42.8,87,29.78,10.0,WNW,9.2,-,N/A,,Overcast,300,2012-10-08 14:15:00
8:35 AM,48.2,42.8,82,29.79,10.0,WNW,9.2,-,N/A,,Mostly Cloudy,300,2012-10-08 14:35:00
8:55 AM,46.4,42.8,87,29.79,10.0,NW,13.8,-,N/A,,Overcast,310,2012-10-08 14:55:00
9:35 AM,46.4,41.0,81,29.81,9.0,NNW,16.1,24.2,N/A,,Overcast,340,2012-10-08 15:35:00
9:55 AM,46.4,41.0,81,29.81,10.0,NNW,12.7,17.3,N/A,,Mostly Cloudy,330,2012-10-08 15:55:00
10:15 AM,48.2,39.2,71,29.81,10.0,NW,15.0,19.6,N/A,,Overcast,320,2012-10-08 16:15:00
10:35 AM,48.2,39.2,71,29.80,10.0,NW,13.8,20.7,N/A,,Mostly Cloudy,320,2012-10-08 16:35:00
10:55 AM,51.8,39.2,62,29.80,10.0,NNW,17.3,21.9,N/A,,Mostly Cloudy,330,2012-10-08 16:55:00
11:15 AM,50.0,39.2,66,29.80,10.0,NW,16.1,19.6,N/A,,Overcast,310,2012-10-08 17:15:00
11:35 AM,51.8,37.4,58,29.80,10.0,NNW,21.9,27.6,N/A,,Mostly Cloudy,330,2012-10-08 17:35:00
11:55 AM,51.8,33.8,50,29.80,10.0,NW,19.6,24.2,N/A,,Mostly Cloudy,310,2012-10-08 17:55:00
12:15 PM,53.6,33.8,47,29.81,10.0,NW,18.4,25.3,N/A,,Overcast,310,2012-10-08 18:15:00
12:35 PM,51.8,33.8,50,29.81,10.0,NW,18.4,27.6,N/A,,Overcast,320,2012-10-08 18:35:00
12:55 PM,51.8,33.8,50,29.80,10.0,NW,19.6,26.5,N/A,,Overcast,310,2012-10-08 18:55:00
1:15 PM,48.2,35.6,62,29.81,10.0,NW,17.3,28.8,N/A,,Overcast,310,2012-10-08 19:15:00
1:35 PM,50.0,35.6,58,29.80,10.0,WNW,16.1,-,N/A,,Mostly Cloudy,300,2012-10-08 19:35:00
1:55 PM,50.0,35.6,58,29.80,10.0,WNW,19.6,26.5,N/A,,Mostly Cloudy,300,2012-10-08 19:55:00
2:15 PM,51.8,35.6,54,29.79,10.0,NW,19.6,25.3,N/A,,Scattered Clouds,310,2012-10-08 20:15:00
2:35 PM,51.8,35.6,54,29.79,10.0,NW,19.6,26.5,N/A,,Scattered Clouds,320,2012-10-08 20:35:00
2:55 PM,51.8,35.6,54,29.80,10.0,NW,16.1,21.9,N/A,,Mostly Cloudy,310,2012-10-08 20:55:00
3:35 PM,51.8,28.4,41,29.80,10.0,NW,20.7,29.9,N/A,,Partly Cloudy,310,2012-10-08 21:35:00
3:55 PM,51.8,26.6,38,29.81,10.0,WNW,24.2,31.1,N/A,,Clear,300,2012-10-08 21:55:00
4:15 PM,50.0,28.4,43,29.81,10.0,WNW,20.7,31.1,N/A,,Scattered Clouds,300,2012-10-08 22:15:00
4:35 PM,48.2,28.4,46,29.82,10.0,NNW,15.0,20.7,N/A,,Partly Cloudy,330,2012-10-08 22:35:00
4:55 PM,48.2,26.6,43,29.82,10.0,NW,20.7,26.5,N/A,,Scattered Clouds,320,2012-10-08 22:55:00
5:15 PM,46.4,26.6,46,29.83,10.0,NNW,13.8,25.3,N/A,,Partly Cloudy,330,2012-10-08 23:15:00
5:35 PM,46.4,26.6,46,29.83,10.0,NW,19.6,25.3,N/A,,Clear,320,2012-10-08 23:35:00
5:55 PM,46.4,24.8,43,29.84,10.0,NW,17.3,24.2,N/A,,Clear,320,2012-10-08 23:55:00
6:15 PM,46.4,24.8,43,29.84,10.0,NW,17.3,23.0,N/A,,Mostly Cloudy,320,2012-10-09 00:15:00
6:35 PM,44.6,24.8,46,29.85,10.0,NW,15.0,-,N/A,,Scattered Clouds,310,2012-10-09 00:35:00
6:55 PM,44.6,24.8,46,29.86,10.0,NW,13.8,-,N/A,,Clear,310,2012-10-09 00:55:00
7:15 PM,44.6,26.6,49,29.87,10.0,NNW,18.4,23.0,N/A,,Mostly Cloudy,330,2012-10-09 01:15:00
7:35 PM,44.6,28.4,53,29.88,10.0,NW,19.6,26.5,N/A,,Overcast,320,2012-10-09 01:35:00
8:16 PM,42.8,26.6,53,29.89,10.0,NW,21.9,28.8,N/A,,Overcast,320,2012-10-09 02:16:00
8:35 PM,42.8,26.6,53,29.90,10.0,NW,18.4,28.8,N/A,,Overcast,320,2012-10-09 02:35:00
8:55 PM,42.8,26.6,53,29.90,10.0,NW,16.1,23.0,N/A,,Overcast,310,2012-10-09 02:55:00
9:15 PM,41.0,24.8,53,29.91,10.0,NW,11.5,24.2,N/A,,Scattered Clouds,320,2012-10-09 03:15:00
9:55 PM,39.2,24.8,56,29.92,10.0,WNW,13.8,-,N/A,,Clear,300,2012-10-09 03:55:00
10:15 PM,39.2,24.8,56,29.92,10.0,WNW,11.5,-,N/A,,Clear,300,2012-10-09 04:15:00
10:35 PM,39.2,24.8,56,29.93,10.0,WNW,11.5,16.1,N/A,,Clear,300,2012-10-09 04:35:00
10:55 PM,39.2,24.8,56,29.92,10.0,WNW,11.5,-,N/A,,Clear,300,2012-10-09 04:55:00
11:15 PM,39.2,24.8,56,29.92,10.0,NW,12.7,-,N/A,,Clear,310,2012-10-09 05:15:00
11:35 PM,37.4,24.8,60,29.93,10.0,WNW,11.5,-,N/A,,Clear,300,2012-10-09 05:35:00
11:55 PM,37.4,24.8,60,29.94,10.0,WNW,15.0,-,N/A,,Scattered Clouds,300,2012-10-09 05:55:00